Weather History for Sturgeon Bay, WI

Change the Weather History Date:

Thursday, January 17, 2013

  Actual Average Record
Temperature  
Mean Temperature 16 °F -  
Max Temperature 21 °F 24 °F 48 °F (1961)
Min Temperature 10 °F 9 °F -29 °F (1982)
Degree Days  
Heating Degree Days 50    
Moisture  
Dew Point 1 °F    
Average Humidity 54    
Maximum Humidity 73    
Minimum Humidity 41    
Precipitation  
Precipitation 0.00 in - - ()
Sea Level Pressure  
Sea Level Pressure 30.23 in    
Wind  
Wind Speed 12 mph (NW)    
Max Wind Speed 16 mph    
Max Gust Speed 24 mph    
Visibility 10 miles    
Events      
Averages and records for this station are not official NWS values.
T = Trace of Precipitation, MM = Missing Value Source: NWS Daily Summary

Daily Weather History Graph

Daily Weather History Graph

Search for Another Location

Airport:

Trip Planner

Search our weather history database for the weather conditions in past years. The results will help you decide how hot, cold, wet, or windy it might be!

Date:

Astronomy

Jan. 17, 2013 Rise Set
Actual Time 7:22 AM CST 4:37 PM CST
Civil Twilight 6:50 AM CST 5:10 PM CST
Nautical Twilight 6:13 AM CST 5:46 PM CST
Astronomical Twilight 5:38 AM CST 6:21 PM CST
Moon 10:10 AM CST (1/17) 11:49 PM CST (1/17)
Length of Visible Light 10h 20m
Length of Day
9h 15m
Waxing Crescent, 38% of the Moon is Illuminated
Jan 17
Waxing Crescent
Jan 18
First Quarter
Jan 26
Full
Feb 3
Last Quarter
Feb 10
New

Hourly Weather History & Observations

Time (CST) Temp. Windchill Dew Point Humidity Pressure Visibility Wind Dir Wind Speed Gust Speed Precip Events Conditions
12:15 AM 21.2 °F 8.3 °F 6.8 °F 54% 30.03 in 10.0 mi NNW 13.8 mph - N/A   Scattered Clouds
12:35 AM 21.2 °F 8.3 °F 6.8 °F 54% 30.05 in 10.0 mi North 13.8 mph - N/A   Mostly Cloudy
12:55 AM 21.2 °F 8.3 °F 10.4 °F 63% 30.06 in 10.0 mi NNW 13.8 mph - N/A   Mostly Cloudy
1:15 AM 21.2 °F 8.3 °F 10.4 °F 63% 30.07 in 10.0 mi North 13.8 mph - N/A   Mostly Cloudy
1:35 AM 21.2 °F 8.3 °F 8.6 °F 58% 30.08 in 10.0 mi North 13.8 mph - N/A   Overcast
1:55 AM 21.2 °F 9.5 °F 6.8 °F 54% 30.10 in 10.0 mi NNW 11.5 mph - N/A   Overcast
2:15 AM 21.2 °F 8.3 °F 6.8 °F 54% 30.11 in 10.0 mi North 13.8 mph - N/A   Overcast
2:35 AM 21.2 °F 9.5 °F 5.0 °F 50% 30.12 in 10.0 mi North 11.5 mph 19.6 mph N/A   Overcast
2:55 AM 19.4 °F 7.9 °F 6.8 °F 58% 30.12 in 10.0 mi North 10.4 mph - N/A   Overcast
3:35 AM 19.4 °F 6.6 °F 6.8 °F 58% 30.13 in 10.0 mi NNW 12.7 mph - N/A   Overcast
3:55 AM 19.4 °F 6.6 °F 10.4 °F 68% 30.13 in 10.0 mi North 12.7 mph - N/A   Overcast
4:15 AM 19.4 °F 7.2 °F 8.6 °F 63% 30.14 in 10.0 mi North 11.5 mph - N/A   Overcast
4:35 AM 17.6 °F 5.0 °F 6.8 °F 63% 30.14 in 10.0 mi North 11.5 mph - N/A   Overcast
4:55 AM 17.6 °F 5.0 °F 6.8 °F 63% 30.15 in 10.0 mi North 11.5 mph - N/A   Overcast
5:15 AM 17.6 °F 5.0 °F 6.8 °F 63% 30.16 in 10.0 mi North 11.5 mph - N/A   Overcast
5:35 AM 17.6 °F 7.3 °F 6.8 °F 63% 30.17 in 10.0 mi North 8.1 mph - N/A   Overcast
5:55 AM 17.6 °F 5.7 °F 5.0 °F 58% 30.18 in 10.0 mi NNW 10.4 mph - N/A   Overcast
6:15 AM 17.6 °F 6.4 °F 6.8 °F 63% 30.18 in 10.0 mi NNW 9.2 mph - N/A   Overcast
6:35 AM 15.8 °F 5.1 °F 6.8 °F 68% 30.19 in 10.0 mi NNW 8.1 mph - N/A   Overcast
6:55 AM 15.8 °F 6.1 °F 6.8 °F 68% 30.20 in 10.0 mi NNW 6.9 mph - N/A   Overcast
7:15 AM 15.8 °F 5.1 °F 5.0 °F 62% 30.21 in 10.0 mi NNW 8.1 mph - N/A   Overcast
7:35 AM 15.8 °F 4.2 °F 5.0 °F 62% 30.22 in 10.0 mi NNW 9.2 mph - N/A   Overcast
7:55 AM 14.0 °F 0.5 °F 5.0 °F 67% 30.23 in 10.0 mi North 11.5 mph - N/A   Overcast
8:15 AM 12.2 °F -2.5 °F 3.2 °F 67% 30.25 in 10.0 mi North 12.7 mph - N/A   Overcast
8:35 AM 12.2 °F -1.0 °F 3.2 °F 67% 30.26 in 10.0 mi North 10.4 mph - N/A   Overcast
8:55 AM 12.2 °F -2.5 °F 1.4 °F 62% 30.27 in 10.0 mi North 12.7 mph - N/A   Mostly Cloudy
9:15 AM 12.2 °F -2.5 °F 5.0 °F 73% 30.27 in 10.0 mi North 12.7 mph - N/A   Clear
9:35 AM 14.0 °F 1.2 °F 3.2 °F 62% 30.27 in 10.0 mi NNW 10.4 mph - N/A   Clear
9:55 AM 14.0 °F 1.2 °F 1.4 °F 57% 30.27 in 10.0 mi NNW 10.4 mph - N/A   Partly Cloudy
10:15 AM 15.8 °F 3.4 °F 1.4 °F 53% 30.28 in 10.0 mi NW 10.4 mph 17.3 mph N/A   Partly Cloudy
10:35 AM 14.0 °F -0.2 °F 1.4 °F 57% 30.27 in 10.0 mi WNW 12.7 mph 18.4 mph N/A   Clear
10:55 AM 14.0 °F -1.4 °F 1.4 °F 57% 30.27 in 10.0 mi WNW 15.0 mph 19.6 mph N/A   Scattered Clouds
11:15 AM 14.0 °F 0.5 °F 3.2 °F 62% 30.27 in 10.0 mi WNW 11.5 mph - N/A   Mostly Cloudy
11:35 AM 15.8 °F 2.1 °F -0.4 °F 49% 30.25 in 10.0 mi West 12.7 mph 18.4 mph N/A   Scattered Clouds
11:55 AM 15.8 °F 2.7 °F -0.4 °F 49% 30.25 in 10.0 mi WNW 11.5 mph - N/A   Clear
12:15 PM 15.8 °F 0.3 °F -2.2 °F 45% 30.25 in 10.0 mi WNW 16.1 mph 19.6 mph N/A   Clear
12:35 PM 15.8 °F 2.7 °F -2.2 °F 45% 30.23 in 10.0 mi WNW 11.5 mph 17.3 mph N/A   Clear
12:55 PM 15.8 °F 3.4 °F -2.2 °F 45% 30.23 in 10.0 mi West 10.4 mph 16.1 mph N/A   Clear
1:15 PM 17.6 °F 4.3 °F -2.2 °F 42% 30.23 in 10.0 mi WNW 12.7 mph 19.6 mph N/A   Clear
1:35 PM 17.6 °F 4.3 °F -2.2 °F 42% 30.23 in 10.0 mi WNW 12.7 mph - N/A   Clear
1:55 PM 17.6 °F 2.7 °F -2.2 °F 42% 30.23 in 10.0 mi WNW 16.1 mph 19.6 mph N/A   Clear
2:15 PM 17.6 °F 3.2 °F -2.2 °F 42% 30.23 in 10.0 mi WNW 15.0 mph 21.9 mph N/A   Partly Cloudy
2:35 PM 17.6 °F 3.7 °F -2.2 °F 42% 30.23 in 10.0 mi NW 13.8 mph 21.9 mph N/A   Clear
2:55 PM 17.6 °F 4.3 °F -2.2 °F 42% 30.24 in 10.0 mi WNW 12.7 mph 19.6 mph N/A   Partly Cloudy
3:15 PM 17.6 °F 3.2 °F -2.2 °F 42% 30.23 in 10.0 mi NW 15.0 mph 20.7 mph N/A   Clear
3:35 PM 17.6 °F 3.2 °F -2.2 °F 42% 30.24 in 10.0 mi WNW 15.0 mph 24.2 mph N/A   Clear
3:55 PM 15.8 °F 2.7 °F -2.2 °F 45% 30.25 in 10.0 mi WNW 11.5 mph - N/A   Clear
4:15 PM 15.8 °F 0.3 °F -2.2 °F 45% 30.25 in 10.0 mi NW 16.1 mph - N/A   Clear
4:35 PM 15.8 °F 2.1 °F -4.0 °F 41% 30.26 in 10.0 mi WNW 12.7 mph 18.4 mph N/A   Clear
4:55 PM 15.8 °F 0.9 °F -4.0 °F 41% 30.26 in 10.0 mi NW 15.0 mph 18.4 mph N/A   Clear
5:15 PM 15.8 °F 2.1 °F -2.2 °F 45% 30.27 in 10.0 mi WNW 12.7 mph - N/A   Clear
5:35 PM 14.0 °F 1.2 °F -2.2 °F 49% 30.28 in 10.0 mi NW 10.4 mph - N/A   Clear
5:55 PM 14.0 °F 0.5 °F -2.2 °F 49% 30.29 in 10.0 mi NW 11.5 mph - N/A   Clear
6:15 PM 14.0 °F 2.9 °F -4.0 °F 45% 30.30 in 10.0 mi NW 8.1 mph - N/A   Clear
6:35 PM 12.2 °F -1.0 °F -2.2 °F 53% 30.30 in 10.0 mi NW 10.4 mph - N/A   Clear
6:55 PM 12.2 °F -1.8 °F -4.0 °F 48% 30.31 in 10.0 mi NW 11.5 mph - N/A   Clear
7:15 PM 12.2 °F -1.8 °F -4.0 °F 48% 30.31 in 10.0 mi NW 11.5 mph - N/A   Clear
7:35 PM 12.2 °F -0.2 °F -2.2 °F 53% 30.33 in 10.0 mi NW 9.2 mph - N/A   Clear
7:55 PM 12.2 °F -1.0 °F -4.0 °F 48% 30.33 in 10.0 mi NW 10.4 mph - N/A   Clear
8:15 PM 12.2 °F -0.2 °F -2.2 °F 53% 30.33 in 10.0 mi NW 9.2 mph - N/A   Clear
8:55 PM 10.4 °F -3.3 °F -2.2 °F 57% 30.34 in 10.0 mi NW 10.4 mph - N/A   Clear
9:15 PM 10.4 °F -2.4 °F -2.2 °F 57% 30.33 in 10.0 mi NW 9.2 mph - N/A   Clear
9:35 PM 10.4 °F -4.8 °F -4.0 °F 52% 30.34 in 10.0 mi NW 12.7 mph - N/A   Clear
9:55 PM 10.4 °F -5.4 °F -4.0 °F 52% 30.34 in 10.0 mi NNW 13.8 mph 18.4 mph N/A   Clear
10:15 PM 10.4 °F -4.8 °F -2.2 °F 57% 30.34 in 10.0 mi NW 12.7 mph - N/A   Clear
10:35 PM 10.4 °F -4.1 °F -2.2 °F 57% 30.33 in 10.0 mi NW 11.5 mph - N/A   Clear
10:55 PM 10.4 °F -2.4 °F -2.2 °F 57% 30.33 in 10.0 mi NW 9.2 mph - N/A   Clear
11:15 PM 10.4 °F -2.4 °F -2.2 °F 57% 30.34 in 10.0 mi NW 9.2 mph - N/A   Clear
11:35 PM 10.4 °F -2.4 °F -4.0 °F 52% 30.34 in 10.0 mi NW 9.2 mph - N/A   Clear
11:55 PM 10.4 °F -0.4 °F -2.2 °F 57% 30.34 in 10.0 mi NW 6.9 mph - N/A   Clear